| time (UTC) | temp C | wind direction | speed KPH | gust KPH | rain 1hr cm | rain 24hr cm | rain mn cm | humidity % | barometer mb |
| 20260506003306 | 0 | 0 | 3.2 | 0.0 | 0.00 | 0.00 | 0.00 | 93 | 1003.0 |
| 20260506000307 | 0 | 0 | 0.0 | 0.0 | 0.00 | 0.00 | 0.00 | 10 | 1003.0 |
| 20260505233307 | 0 | 90 | 4.8 | 0.0 | 0.00 | 0.00 | 0.00 | 93 | 1003.0 |
| 20260505230306 | 0 | 0 | 0.0 | 0.0 | 0.00 | 0.00 | 0.00 | 93 | 1003.0 |
| 20260505223306 | 0 | 0 | 1.6 | 0.0 | 0.00 | 0.00 | 0.00 | 10 | 1003.0 |
| 20260505220306 | 0 | 0 | 0.0 | 0.0 | 0.00 | 0.00 | 0.00 | 10 | 1003.0 |
| 20260505213306 | 0 | 0 | 1.6 | 0.0 | 0.00 | 0.00 | 0.00 | 93 | 1003.0 |
| 20260505210306 | 0 | 0 | 1.6 | 0.0 | 0.00 | 0.00 | 0.00 | 93 | 1003.0 |
| 20260505203306 | 0 | 0 | 3.2 | 0.0 | 0.00 | 0.00 | 0.00 | 10 | 1003.0 |
| 20260505200306 | 0 | 80 | 4.8 | 0.0 | 0.00 | 0.00 | 0.00 | 10 | 1003.0 |
| 20260505193306 | 0 | 0 | 1.6 | 0.0 | 0.00 | 0.00 | 0.00 | 10 | 1003.0 |
| 20260505190306 | 0 | 0 | 3.2 | 0.0 | 0.00 | 0.00 | 0.00 | 93 | 1003.0 |
| 20260505183306 | 1 | 0 | 0.0 | 0.0 | 0.00 | 0.00 | 0.00 | 93 | 1003.0 |
| 20260505180307 | 1 | 80 | 4.8 | 0.0 | 0.00 | 0.00 | 0.00 | 93 | 1003.0 |
| 20260505173307 | 1 | 90 | 4.8 | 0.0 | 0.00 | 0.00 | 0.00 | 93 | 1003.0 |
| 20260505170307 | 1 | 120 | 4.8 | 0.0 | 0.00 | 0.00 | 0.00 | 86 | 1003.0 |
| 20260505163307 | 1 | 280 | 8.0 | 0.0 | 0.00 | 0.00 | 0.00 | 86 | 1003.0 |
| 20260505160307 | 0 | 250 | 8.0 | 0.0 | 0.00 | 0.00 | 0.00 | 93 | 1003.0 |
| 20260505153307 | 1 | 280 | 14.5 | 0.0 | 0.00 | 0.00 | 0.00 | 80 | 1003.0 |
| 20260505150306 | 2 | 0 | 4.8 | 0.0 | 0.00 | 0.00 | 0.00 | 86 | 1003.0 |
| 20260505140307 | 1 | 340 | 14.5 | 0.0 | 0.00 | 0.00 | 0.00 | 86 | 1003.0 |
| 20260505130307 | 3 | 270 | 11.3 | 0.0 | 0.00 | 0.00 | 0.00 | 69 | 1002.0 |
| 20260505123306 | 3 | 250 | 19.3 | 0.0 | 0.00 | 0.00 | 0.00 | 64 | 1002.0 |
| 20260505120306 | 3 | 260 | 14.5 | 0.0 | 0.00 | 0.00 | 0.00 | 69 | 1002.0 |
| 20260505113307 | 5 | 270 | 12.9 | 0.0 | 0.00 | 0.00 | 0.00 | 65 | 1001.0 |
| 20260505110307 | 3 | 10 | 9.7 | 0.0 | 0.00 | 0.00 | 0.00 | 75 | 1001.0 |
| 20260505100307 | 5 | 270 | 14.5 | 0.0 | 0.00 | 0.00 | 0.00 | 65 | 1001.0 |
| 20260505093306 | 3 | 240 | 14.5 | 0.0 | 0.00 | 0.00 | 0.00 | 69 | 1001.0 |
| 20260505090307 | 2 | 250 | 19.3 | 0.0 | 0.00 | 0.00 | 0.00 | 80 | 1001.0 |
| 20260505083306 | 1 | 260 | 16.1 | 0.0 | 0.00 | 0.00 | 0.00 | 80 | 1001.0 |
| 20260505080307 | 1 | 290 | 12.9 | 0.0 | 0.00 | 0.00 | 0.00 | 80 | 1001.0 |
| 20260505073306 | 1 | 300 | 14.5 | 0.0 | 0.00 | 0.00 | 0.00 | 74 | 1001.0 |
| 20260505070307 | 1 | 310 | 9.7 | 0.0 | 0.00 | 0.00 | 0.00 | 74 | 1000.0 |
| 20260505063306 | 2 | 330 | 3.2 | 0.0 | 0.00 | 0.00 | 0.00 | 74 | 1000.0 |
| 20260505060306 | 1 | 120 | 4.8 | 0.0 | 0.00 | 0.00 | 0.00 | 80 | 1000.0 |
| 20260505053309 | 0 | 0 | 0.0 | 0.0 | 0.00 | 0.00 | 0.00 | 86 | 1000.0 |
| 20260505050306 | 0 | 0 | 3.2 | 0.0 | 0.00 | 0.00 | 0.00 | 92 | 1000.0 |
| 20260505040306 | -2 | 110 | 4.8 | 0.0 | 0.00 | 0.00 | 0.00 | 10 | 1000.0 |
| 20260505033306 | -1 | 0 | 3.2 | 0.0 | 0.00 | 0.00 | 0.00 | 92 | 1000.0 |
| 20260505030306 | -2 | 0 | 3.2 | 0.0 | 0.00 | 0.00 | 0.00 | 10 | 1000.0 |
| 20260505023306 | -2 | 0 | 3.2 | 0.0 | 0.00 | 0.00 | 0.00 | 10 | 1000.0 |
| 20260505020306 | -1 | 0 | 0.0 | 0.0 | 0.00 | 0.00 | 0.00 | 10 | 1000.0 |
| 20260505013306 | -1 | 0 | 3.2 | 0.0 | 0.00 | 0.00 | 0.00 | 10 | 1000.0 |
| 20260505010306 | -1 | 0 | 0.0 | 0.0 | 0.00 | 0.00 | 0.00 | 10 | 1000.0 |